Location: Unspecified
(0.0000°N, 0.0000°E)
Time: 20:06:48
(UTC+00:00)

DMSP B5D2-5 - Pass Details

Date: 09 June 2023
Orbit: 711 x 814 km, 98.7° (Epoch: 30 September)

Event Time Altitude Azimuth Distance (km) Brightness Sun altitude
Exits shadow 18:45:47 13° 131° (SE) 2,021 6.6 -10.7°
Maximum altitude 18:49:18 27° 77° (ENE) 1,347 5.8 -11.5°
Drops below altitude 10° 18:53:23 10° 19° (NNE) 2,213 7.4 -12.4°
Sets 18:55:57 0° 8° (N) 3,146 8.4 -13.0°
